Tracking 29487 objects as of 11-Sep-2024
HD Live streaming from Space Station
objects crossing your sky now

PLATERO

Track PLATERO now!
10-day predictions


NORAD ID: 58262
Int'l Code: 2023-174G
Perigee: 490.7 km
Apogee: 505.9 km
Inclination: 97.5 °
Period: 94.4 minutes
Semi major axis: 6869 km
RCS: Unknown
Launch date: November 11, 2023
Source: United States (US)
Launch site: AIR FORCE WESTERN TEST RANGE (AFWTR)
Your satellite tracking list
Your tracking list is empty




NASA's NSSDC Master Catalog

Two Line Element Set (TLE):
1 58262U 23174G   24254.74236365  .00051823  00000-0  20717-2 0  9991
2 58262  97.4520 328.7252 0011038 293.6014  66.4065 15.24873429 46720
Source of the keplerian elements: AFSPC